Forestdale, MA

2:37 AM EDT on September 28, 2016 (GMT -0400)
Cape Cod Coast Guard Air Station

Weather History for KFMH - December, 2012

Change the Weather History Date:

Thursday, December 27, 2012

  Actual Average Record
Temperature  
Mean Temperature 42 °F -  
Max Temperature 53 °F 39 °F 59 °F (2015)
Min Temperature 32 °F 23 °F 10 °F (2004)
Degree Days  
Heating Degree Days 22    
Moisture  
Dew Point 41 °F    
Average Humidity 92    
Maximum Humidity 100    
Minimum Humidity 80    
Precipitation  
Precipitation 0.43 in - - ()
Sea Level Pressure  
Sea Level Pressure 29.39 in    
Wind  
Wind Speed 20 mph (NNE)    
Max Wind Speed 38 mph    
Max Gust Speed 56 mph    
Visibility 6 miles    
Events Rain , Snow    
Averages and records for this station are not official NWS values.
T = Trace of Precipitation, MM = Missing Value Source: NWS Daily Summary

Daily Weather History Graph

Daily Weather History Graph

Search for Another Location

Airport or City:

Trip Planner

Search our weather history database for the weather conditions in past years. The results will help you decide how hot, cold, wet, or windy it might be!

Date:

Astronomy

Dec. 27, 2012 Rise Set
Actual Time 7:08 AM EST 4:18 PM EST
Civil Twilight 6:36 AM EST 4:50 PM EST
Nautical Twilight 6:01 AM EST 5:25 PM EST
Astronomical Twilight 5:27 AM EST 5:59 PM EST
Moon 3:59 PM EST (12/27) 6:16 AM EST (12/27)
Length of Visible Light 10h 13m
Length of Day
9h 10m
Full, 100% of the Moon is Illuminated
Dec 27
Full
Dec 28
Full
Jan 4
Last Quarter
Jan 11
New
Jan 18
First Quarter

Hourly Weather History & Observations

Time (EST) Temp. Windchill Dew Point Humidity Pressure Visibility Wind Dir Wind Speed Gust Speed Precip Events Conditions
12:15 AM 35.6 °F 24.2 °F 35.6 °F 100% 29.86 in 4.0 mi East 21.9 mph 31.1 mph N/A Rain Light Rain
12:35 AM 37.4 °F 26.6 °F 35.6 °F 93% 29.84 in 5.0 mi East 21.9 mph 32.2 mph N/A Rain Light Rain
12:55 AM 37.4 °F 27.2 °F 35.6 °F 93% 29.79 in 5.0 mi East 19.6 mph 31.1 mph N/A Rain Light Rain
1:15 AM 37.4 °F 26.6 °F 35.6 °F 93% 29.76 in 3.0 mi East 21.9 mph 34.5 mph N/A Rain Light Rain
1:35 AM 37.4 °F 26.9 °F 37.4 °F 100% 29.73 in 4.0 mi East 20.7 mph 31.1 mph N/A Rain Light Rain
1:55 AM 39.2 °F 28.7 °F 37.4 °F 93% 29.69 in 5.0 mi East 23.0 mph 33.4 mph N/A Rain Light Rain
2:15 AM 39.2 °F 28.5 °F 37.4 °F 93% 29.67 in 5.0 mi East 24.2 mph 38.0 mph N/A Rain Light Rain
2:35 AM 41.0 °F 30.7 °F 39.2 °F 93% 29.66 in 4.0 mi East 25.3 mph 32.2 mph N/A Rain Light Rain
2:55 AM 41.0 °F 30.7 °F 39.2 °F 93% 29.63 in 1.8 mi East 25.3 mph 41.4 mph 0.01 in   Unknown
3:15 AM 41.0 °F 30.7 °F 41.0 °F 100% 29.60 in 1.5 mi East 25.3 mph 44.9 mph 0.02 in   Mist
3:35 AM 42.8 °F 32.5 °F 41.0 °F 93% 29.49 in 3.0 mi East 28.8 mph 47.2 mph 0.04 in   Mist
3:55 AM 42.8 °F 32.5 °F 41.0 °F 93% 29.51 in 10.0 mi East 28.8 mph 44.9 mph 0.04 in   Unknown
4:15 AM 44.6 °F 35.5 °F 41.0 °F 87% 29.49 in 10.0 mi East 25.3 mph 41.4 mph N/A   Unknown
4:35 AM 44.6 °F 33.6 °F 41.0 °F 87% 29.43 in 10.0 mi East 38.0 mph 50.6 mph N/A   Unknown
4:55 AM 46.4 °F 36.9 °F 42.8 °F 87% 29.40 in 10.0 mi East 32.2 mph 48.3 mph N/A   Unknown
5:15 AM 46.4 °F 37.5 °F 44.6 °F 93% 29.39 in 10.0 mi East 27.6 mph 44.9 mph N/A   Unknown
5:35 AM 46.4 °F 37.7 °F 44.6 °F 93% 29.38 in 10.0 mi East 26.5 mph 54.1 mph N/A   Unknown
5:55 AM 48.2 °F - 44.6 °F 87% 29.37 in 8.0 mi East 28.8 mph 43.7 mph N/A   Unknown
6:15 AM 48.2 °F - 44.6 °F 87% 29.36 in 8.0 mi ESE 33.4 mph 50.6 mph N/A   Unknown
6:35 AM 48.2 °F - 44.6 °F 87% 29.36 in 8.0 mi East 36.8 mph 48.3 mph N/A   Unknown
6:55 AM 48.2 °F - 44.6 °F 87% 29.34 in 8.0 mi East 28.8 mph 56.4 mph N/A   Unknown
7:15 AM 48.2 °F - 44.6 °F 87% 29.32 in 6.0 mi East 29.9 mph 48.3 mph N/A   Mist
7:35 AM 48.2 °F - 44.6 °F 87% 29.30 in 7.0 mi East 26.5 mph 36.8 mph N/A   Unknown
7:55 AM 48.2 °F - 46.4 °F 93% 29.30 in 5.0 mi East 19.6 mph 33.4 mph N/A   Mist
8:15 AM 48.2 °F - 46.4 °F 93% 29.28 in 4.0 mi East 23.0 mph 36.8 mph N/A   Mist
8:35 AM 48.2 °F - 46.4 °F 93% 29.28 in 5.0 mi East 18.4 mph 28.8 mph N/A   Mist
8:55 AM 50.0 °F - 48.2 °F 94% 29.27 in 4.0 mi East 19.6 mph 32.2 mph N/A   Mist
9:15 AM 50.0 °F - 48.2 °F 94% 29.26 in 3.0 mi ESE 15.0 mph 20.7 mph N/A   Mist
9:35 AM 50.0 °F - 48.2 °F 94% 29.27 in 4.0 mi SE 13.8 mph 20.7 mph N/A   Mist
9:55 AM 50.0 °F - 48.2 °F 94% 29.26 in 4.0 mi SE 12.7 mph - N/A   Mist
10:15 AM 51.8 °F - 48.2 °F 88% 29.27 in 4.0 mi SSE 9.2 mph - N/A   Mist
10:35 AM 50.0 °F - 48.2 °F 94% 29.26 in 2.5 mi South 11.5 mph - N/A   Mist
10:55 AM 50.0 °F - 50.0 °F 100% 29.26 in 2.0 mi SW 15.0 mph 19.6 mph 0.01 in Rain Light Rain
11:15 AM 50.0 °F - 50.0 °F 100% 29.25 in 5.0 mi WSW 10.4 mph - N/A   Mist
11:35 AM 50.0 °F - 50.0 °F 100% 29.24 in 7.0 mi WSW 11.5 mph - N/A   Unknown
11:55 AM 50.0 °F - 48.2 °F 94% 29.24 in 8.0 mi WSW 9.2 mph - N/A   Unknown
12:15 PM 50.0 °F - 48.2 °F 94% 29.22 in 7.0 mi WSW 6.9 mph - N/A   Unknown
12:35 PM 50.0 °F - 48.2 °F 94% 29.22 in 10.0 mi SW 10.4 mph - N/A   Unknown
12:55 PM 51.8 °F - 50.0 °F 94% 29.21 in 9.0 mi SW 10.4 mph - N/A   Unknown
1:15 PM 53.6 °F - 48.2 °F 82% 29.20 in 10.0 mi SW 9.2 mph - N/A   Unknown
1:35 PM 51.8 °F - 48.2 °F 88% 29.21 in 10.0 mi SSW 10.4 mph - N/A   Unknown
1:55 PM 51.8 °F - 48.2 °F 88% 29.21 in 3.0 mi WSW 9.2 mph - N/A   Mist
2:15 PM - - - N/A% - - North - - N/A   Unknown
2:35 PM 50.0 °F - 48.2 °F 94% 29.22 in 8.0 mi West 6.9 mph - N/A   Unknown
2:55 PM 50.0 °F - 48.2 °F 94% 29.22 in 10.0 mi WSW 4.6 mph - N/A   Mostly Cloudy
3:15 PM 50.0 °F - 46.4 °F 87% 29.22 in 10.0 mi West 6.9 mph - N/A   Mostly Cloudy
3:35 PM 48.2 °F - 46.4 °F 93% 29.22 in 10.0 mi WNW 8.1 mph - N/A   Overcast
3:55 PM 48.2 °F - 46.4 °F 93% 29.23 in 10.0 mi NW 12.7 mph 18.4 mph N/A   Mostly Cloudy
4:15 PM 44.6 °F 39.7 °F 42.8 °F 93% 29.23 in 10.0 mi NNW 9.2 mph 21.9 mph N/A   Clear
4:35 PM 42.8 °F 36.2 °F 41.0 °F 93% 29.25 in 10.0 mi WNW 12.7 mph - N/A   Clear
4:55 PM 41.0 °F 33.9 °F 39.2 °F 93% 29.27 in 10.0 mi WNW 12.7 mph 21.9 mph N/A   Clear
5:15 PM 41.0 °F 33.1 °F 39.2 °F 93% 29.28 in 10.0 mi NW 15.0 mph 20.7 mph N/A   Clear
5:35 PM 39.2 °F 30.8 °F 37.4 °F 93% 29.28 in 10.0 mi NW 15.0 mph 24.2 mph N/A   Clear
5:55 PM 39.2 °F 30.8 °F 37.4 °F 93% 29.29 in 10.0 mi NW 15.0 mph 21.9 mph N/A   Clear
6:15 PM 39.2 °F 29.6 °F 37.4 °F 93% 29.31 in 10.0 mi NW 19.6 mph 28.8 mph N/A   Clear
6:35 PM 37.4 °F 28.2 °F 35.6 °F 93% 29.32 in 10.0 mi NW 16.1 mph 29.9 mph N/A   Clear
6:55 PM 37.4 °F 26.1 °F 35.6 °F 93% 29.34 in 5.0 mi NW 24.2 mph 32.2 mph N/A   Clear
7:15 PM 35.6 °F 25.9 °F 33.8 °F 93% 29.37 in 3.0 mi NW 16.1 mph 32.2 mph N/A Rain Light Rain
7:35 PM 33.8 °F 22.5 °F 32.0 °F 93% 29.39 in 3.0 mi NW 19.6 mph 29.9 mph N/A Rain Light Rain
7:55 PM 32.0 °F 20.5 °F 32.0 °F 100% 29.41 in 2.5 mi NW 18.4 mph 26.5 mph 0.01 in Rain Light Rain
8:15 PM 32.0 °F 20.1 °F 32.0 °F 100% 29.42 in 3.0 mi NW 19.6 mph 28.8 mph N/A Rain Light Rain
8:35 PM 32.0 °F 21.2 °F 32.0 °F 100% 29.44 in 5.0 mi NW 16.1 mph 26.5 mph N/A   Clear
8:55 PM 32.0 °F 19.5 °F 32.0 °F 100% 29.46 in 5.0 mi NNW 21.9 mph 29.9 mph N/A   Clear
9:15 PM 32.0 °F 21.2 °F 30.2 °F 93% 29.47 in 3.0 mi NW 16.1 mph 24.2 mph 0.01 in Rain Light Rain
9:35 PM 32.0 °F 20.8 °F 30.2 °F 93% 29.48 in 2.5 mi NNW 17.3 mph 28.8 mph 0.06 in Snow Light Snow
9:55 PM 32.0 °F 20.5 °F 28.4 °F 87% 29.51 in 1.8 mi NW 18.4 mph 29.9 mph 0.19 in Snow Light Snow
10:15 PM 32.0 °F 20.5 °F 28.4 °F 87% 29.52 in 2.5 mi NW 18.4 mph 25.3 mph 0.04 in Snow Light Snow
10:35 PM 32.0 °F 20.8 °F 28.4 °F 87% 29.53 in 1.5 mi NNW 17.3 mph 29.9 mph 0.26 in Snow Light Snow
10:55 PM 32.0 °F 21.6 °F 28.4 °F 87% 29.55 in 8.0 mi NW 15.0 mph 25.3 mph 0.32 in Snow Light Snow
11:15 PM 32.0 °F 21.6 °F 28.4 °F 87% 29.56 in 10.0 mi NNW 15.0 mph 26.5 mph N/A   Clear
11:35 PM 32.0 °F 22.1 °F 28.4 °F 87% 29.56 in 10.0 mi NNW 13.8 mph 18.4 mph N/A   Clear
11:55 PM 32.0 °F 23.0 °F 26.6 °F 80% 29.57 in 10.0 mi NNW 11.5 mph 17.3 mph N/A   Clear